EW2984 Weather Reports


time (UTC)temp
F
wind
direction
speed
knots
gust
knots
rain 1hr
in
rain 24hr
in
rain mn
in
humidity
%
barometer
mb
20260504050009 47 218 0.0 0.9 0.00 0.00 0.00 59 1015.4
20260504044514 48 221 0.0 0.9 0.00 0.00 0.00 57 1015.4
20260504043007 48 215 0.0 0.9 0.00 0.00 0.00 58 1015.4
20260504041505 47 226 0.0 0.9 0.00 0.00 0.00 59 1015.5
20260504040003 48 219 0.0 0.9 0.00 0.00 0.00 59 1015.3
20260504034503 47 208 0.0 0.9 0.00 0.00 0.00 60 1015.2
20260504033002 48 218 0.0 0.9 0.00 0.00 0.00 60 1015.2
20260504031501 48 219 0.0 0.9 0.00 0.00 0.00 58 1015.0
20260504030000 48 219 0.0 0.9 0.00 0.00 0.00 57 1015.0
20260504024601 48 215 0.0 0.9 0.00 0.00 0.00 58 1015.0
20260504023059 48 217 0.0 0.9 0.00 0.00 0.00 57 1014.9
20260504021558 49 217 0.0 0.0 0.00 0.00 0.00 56 1014.9
20260504020059 50 217 0.0 0.9 0.00 0.00 0.00 54 1015.0
20260504014603 49 217 0.0 0.9 0.00 0.00 0.00 54 1014.9
20260504013111 50 217 0.0 0.9 0.00 0.00 0.00 54 1014.7
20260504011559 50 205 0.0 0.0 0.00 0.00 0.00 52 1014.6
20260504010113 50 221 0.0 0.9 0.00 0.00 0.00 52 1014.5
20260504004556 51 221 0.0 0.0 0.00 0.00 0.00 52 1014.5
20260504003055 52 221 0.0 0.0 0.00 0.00 0.00 50 1014.3
20260504001602 54 221 0.0 0.9 0.00 0.00 0.00 47 1014.2
20260504000058 55 222 0.0 0.9 0.00 0.00 0.00 45 1014.0
20260503234554 56 194 0.0 0.0 0.00 0.00 0.00 43 1013.9
20260503233101 56 186 0.0 1.7 0.00 0.00 0.00 42 1013.6
20260503231554 57 212 0.0 2.6 0.00 0.00 0.00 42 1013.6
20260503230054 57 210 0.0 0.9 0.00 0.00 0.00 43 1013.6
20260503224552 57 218 0.0 1.7 0.00 0.00 0.00 41 1013.7
20260503223051 58 293 0.0 1.7 0.00 0.00 0.00 41 1013.6
20260503221558 58 235 0.9 2.6 0.00 0.00 0.00 40 1013.6
20260503214551 59 274 0.0 3.5 0.00 0.00 0.00 41 1013.7
20260503213050 59 205 0.9 2.6 0.00 0.00 0.00 37 1013.7
20260503211548 60 307 0.9 5.2 0.00 0.00 0.00 38 1013.6
20260503210054 60 199 0.0 6.1 0.00 0.00 0.00 35 1013.5
20260503204601 63 217 0.0 4.3 0.00 0.00 0.00 35 1013.7
20260503203043 62 212 0.0 1.7 0.00 0.00 0.00 35 1013.7
20260503201542 61 210 0.0 4.3 0.00 0.00 0.00 36 1013.9
20260503200046 60 218 0.0 4.3 0.00 0.00 0.00 36 1014.0
20260503194540 61 155 0.0 5.2 0.00 0.00 0.00 38 1014.3
20260503193039 60 192 0.9 2.6 0.00 0.00 0.00 37 1014.4
20260503191538 61 200 0.9 2.6 0.00 0.00 0.00 34 1014.5
20260503190044 61 233 0.0 3.5 0.00 0.00 0.00 40 1014.7
20260503184536 61 248 0.0 5.2 0.00 0.00 0.00 39 1014.9
20260503183030 58 210 0.9 6.1 0.00 0.00 0.00 40 1015.0
20260503181532 58 253 0.9 3.5 0.00 0.00 0.00 40 1015.0
20260503180029 57 257 0.0 5.2 0.00 0.00 0.00 41 1015.2
20260503174526 57 32 0.9 4.3 0.00 0.00 0.00 43 1015.1
20260503173022 55 37 0.0 2.6 0.00 0.00 0.00 42 1015.3
20260503171521 55 30 0.0 3.5 0.00 0.00 0.00 46 1015.4
20260503081506 42 353 0.0 0.9 0.00 0.00 0.00 68 1013.7
20260503071503 41 317 0.0 1.7 0.00 0.00 0.00 76 1013.4